AirNav   Pilot Hours Calculator
 
 1402 users online  

MA55 Muskeget Island Airport
Muskeget Island, Massachusetts, USA

GOING TO MUSKEGET ISLAND?


FAA INFORMATION EFFECTIVE 28 FEBRUARY 2019

Location

FAA Identifier: MA55
Lat/Long: 41-20-05.4370N / 070-17-58.0720W
41-20.090617N / 070-17.967867W
41.3348436 / -70.2994644
(estimated)
Elevation: 90 ft. / 27 m (estimated)
Variation: 16W (1985)
From city: 10 miles W of MUSKEGET ISLAND, MA
Time zone: UTC -5 (UTC -4 during Daylight Saving Time)
Zip code: 02554

Airport Operations

Airport use: Private use. Permission required prior to landing
Activation date: 03/1961
Control tower: no
ARTCC: BOSTON CENTER
FSS: BRIDGEPORT FLIGHT SERVICE STATION
Attendance: UNATNDD
Wind indicator: no
Segmented circle: no
Beacon: white (unlighted land airport)
ACTVT ROTG BCN - 132.5.

Airport Communications

WX ASOS at ACK (12 nm SE): PHONE 508-325-6082
WX ASOS at MVY (15 nm W): 126.25 (508-696-6988)

Nearby radio navigation aids

VOR radial/distance  VOR name  Freq  Var
ACKr299/12.7NANTUCKET VOR/DME116.2015W
MVYr120/14.6MARTHAS VINEYARD VOR/DME114.5015W

 
NDB name  Hdg/Dist  Freq  Var  ID
NAUSET229/25.627916WCQX -.-. --.- -..-

Airport Services

Fuel available: 100
Airframe service: NONE
Powerplant service: NONE

Runway Information

Runway NE/SW

Dimensions: 1100 x 25 ft. / 335 x 8 m
Surface: turf
ROUGH SURFACE OF BEACH GRASS AND POISON IVY AND PATCHES OF SAND.
RUNWAY NE  RUNWAY SW
Traffic pattern: leftleft

Airport Ownership and Management from official FAA records

Ownership: Privately-owned
Owner: CROCKER SNOW
120 TOPSFIELD ROAD
IPSWICH, MA 01938
Phone 978-356-2277
1/2 OWNED DONALD LITTLE JR; CROCKER SNOW JR.; ADAM, ANDREW AND NICHOLAS SNOW. OTHER 1/2 OWNED BY NANTUCKET.
Manager: CROCKER SNOW
120 TOPSFIELD ROAD
IPSWICH, MA 01938
Phone 978-356-2277

Airport Operational Statistics

Aircraft based on the field: 1
Single engine airplanes: 1
    

Additional Remarks

EMERGENCY USE ONLY.

Instrument Procedures

There are no published instrument procedures at MA55.

Some nearby airports with instrument procedures:

KACK - Nantucket Memorial Airport (12 nm SE)
KMVY - Martha's Vineyard Airport (15 nm W)
KHYA - Barnstable Municipal Airport-Boardman/Polando Field (20 nm N)
KFMH - Cape Cod Coast Guard Air Station (22 nm NW)
KCQX - Chatham Municipal Airport (25 nm NE)
 
Loc | Ops | Rwys | IFR | FBO | Links
Com | Nav | Svcs | Stats | Notes
Area around MA55 (Muskeget Island Airport)
 
Road maps at: MapQuest Bing Google
 
Aerial photo
No photo
 
Sectional chart

 
Airport distance calculator
Flying to Muskeget Island Airport? Find the distance to fly.

From to MA55

Sunrise and sunset
Times for 20-Mar-2019
 Local
(UTC-4)
 Zulu
(UTC)
Morning civil twilight06:1810:18
Sunrise06:4610:46
Sunset18:5222:52
Evening civil twilight19:1923:19

Current date and time
Zulu (UTC)  20-Mar-2019 16:48:04
Local (UTC-4)  20-Mar-2019 12:48:04
 
METAR
KACK 
12nm SE 
201553Z 18009KT 10SM CLR 06/M06 A3043 RMK AO2 SLP303 T00561061
KMVY 
15nm W 
201553Z 18011KT 10SM CLR 07/M07 A3042 RMK AO2 SLPNO T00721072
KHYA 
20nm N 
201556Z 18007KT 10SM CLR 07/M08 A3040 RMK AO2 SLP295 T00671078
KFMH 
20nm NW 
201635Z 23010KT 10SM CLR 09/M09 A3039 RMK AO2 FZRANO
TAF
KACK 
12nm SE 
201502Z 2015/2112 19008KT P6SM SKC FM201600 20007KT P6SM SKC FM210200 17007KT P6SM SKC FM210800 14008KT P6SM FEW120
KHYA 
20nm N 
201502Z 2015/2112 20005KT P6SM SKC FM202000 20008KT P6SM SKC FM210900 15005KT P6SM SCT120
NOTAMs
Click for the latest NOTAMs
NOTAMs are issued by the DoD/FAA and will open in a separate window not controlled by AirNav.

 

 
 

Would you like to see your business listed on this page?

 If your business provides an interesting product or service to pilots, flight crews, aircraft, or users of the Muskeget Island Airport, you should consider listing it here.  To start the listing process, click on the button below
 
Add a business
 

Other Pages about Muskeget Island Airport

Update a link
 
Copyright © AirNav, LLC. All rights reserved. Privacy Policy  Contact